Year,Month,Day,Hour,Minute,Value (Times are PST for temperature in C)
2015,05,04,00,00,6.40
2015,05,04,00,01,6.40
2015,05,04,00,02,6.40
2015,05,04,00,03,6.40
2015,05,04,00,04,6.40
2015,05,04,00,05,6.40
2015,05,04,00,06,6.40
2015,05,04,00,07,6.40
2015,05,04,00,08,6.40
2015,05,04,00,09,6.40
2015,05,04,00,10,6.40
2015,05,04,00,11,6.30
2015,05,04,00,12,6.30
2015,05,04,00,13,6.30
2015,05,04,00,14,6.30
2015,05,04,00,15,6.30
2015,05,04,00,16,6.30
2015,05,04,00,17,6.30
2015,05,04,00,18,6.30
2015,05,04,00,19,6.30
2015,05,04,00,20,6.30
2015,05,04,00,21,6.30
2015,05,04,00,22,6.30
2015,05,04,00,23,6.30
2015,05,04,00,24,6.30
2015,05,04,00,25,6.30
2015,05,04,00,26,6.30
2015,05,04,00,27,6.20
2015,05,04,00,28,6.20
2015,05,04,00,29,6.20
2015,05,04,00,30,6.20
2015,05,04,00,31,6.20
2015,05,04,00,32,6.20
2015,05,04,00,33,6.20
2015,05,04,00,34,6.20
2015,05,04,00,35,6.20
2015,05,04,00,36,6.20
2015,05,04,00,37,6.20
2015,05,04,00,38,6.20
2015,05,04,00,39,6.20
2015,05,04,00,40,6.20
2015,05,04,00,41,6.20
2015,05,04,00,42,6.20
2015,05,04,00,43,6.20
2015,05,04,00,44,6.20
2015,05,04,00,45,6.20
2015,05,04,00,46,6.20
2015,05,04,00,47,6.10
2015,05,04,00,48,6.10
2015,05,04,00,49,6.10
2015,05,04,00,50,6.10
2015,05,04,00,51,6.10
2015,05,04,00,52,6.10
2015,05,04,00,53,6.10
2015,05,04,00,54,6.00
2015,05,04,00,55,6.00
2015,05,04,00,56,6.00
2015,05,04,00,57,6.00
2015,05,04,00,58,6.00
2015,05,04,00,59,6.00
2015,05,04,01,00,5.90
2015,05,04,01,01,5.90
2015,05,04,01,02,5.90
2015,05,04,01,03,5.90
2015,05,04,01,04,5.90
2015,05,04,01,05,5.90
2015,05,04,01,06,5.90
2015,05,04,01,07,5.90
2015,05,04,01,08,5.90
2015,05,04,01,09,5.80
2015,05,04,01,10,5.80
2015,05,04,01,11,5.80
2015,05,04,01,12,5.80
2015,05,04,01,13,5.80
2015,05,04,01,14,5.80
2015,05,04,01,15,5.80
2015,05,04,01,16,5.80
2015,05,04,01,17,5.80
2015,05,04,01,18,5.80
2015,05,04,01,19,5.70
2015,05,04,01,20,5.70
2015,05,04,01,21,5.70
2015,05,04,01,22,5.70
2015,05,04,01,23,5.60
2015,05,04,01,24,5.60
2015,05,04,01,25,5.60
2015,05,04,01,26,5.50
2015,05,04,01,27,5.50
2015,05,04,01,28,5.40
2015,05,04,01,29,5.40
2015,05,04,01,30,5.40
2015,05,04,01,31,5.40
2015,05,04,01,32,5.40
2015,05,04,01,33,5.40
2015,05,04,01,34,5.40
2015,05,04,01,35,5.30
2015,05,04,01,36,5.30
2015,05,04,01,37,5.30
2015,05,04,01,38,5.30
2015,05,04,01,39,5.30
2015,05,04,01,40,5.30
2015,05,04,01,41,5.30
2015,05,04,01,42,5.30
2015,05,04,01,43,5.30
2015,05,04,01,44,5.30
2015,05,04,01,45,5.40
2015,05,04,01,46,5.40
2015,05,04,01,47,5.40
2015,05,04,01,48,5.40
2015,05,04,01,49,5.40
2015,05,04,01,50,5.40
2015,05,04,01,51,5.30
2015,05,04,01,52,5.30
2015,05,04,01,53,5.30
2015,05,04,01,54,5.30
2015,05,04,01,55,5.30
2015,05,04,01,56,5.30
2015,05,04,01,57,5.30
2015,05,04,01,58,5.30
2015,05,04,01,59,5.30
2015,05,04,02,00,5.30
2015,05,04,02,01,5.30
2015,05,04,02,02,5.30
2015,05,04,02,03,5.30
2015,05,04,02,04,5.30
2015,05,04,02,05,5.30
2015,05,04,02,06,5.30
2015,05,04,02,07,5.30
2015,05,04,02,08,5.30
2015,05,04,02,09,5.40
2015,05,04,02,10,5.40
2015,05,04,02,11,5.40
2015,05,04,02,12,5.40
2015,05,04,02,13,5.40
2015,05,04,02,14,5.40
2015,05,04,02,15,5.40
2015,05,04,02,16,5.40
2015,05,04,02,17,5.30
2015,05,04,02,18,5.30
2015,05,04,02,19,5.30
2015,05,04,02,20,5.30
2015,05,04,02,21,5.30
2015,05,04,02,22,5.30
2015,05,04,02,23,5.20
2015,05,04,02,24,5.20
2015,05,04,02,25,5.20
2015,05,04,02,26,5.20
2015,05,04,02,27,5.20
2015,05,04,02,28,5.20
2015,05,04,02,29,5.20
2015,05,04,02,30,5.20
2015,05,04,02,31,5.10
2015,05,04,02,32,5.10
2015,05,04,02,33,5.10
2015,05,04,02,34,5.10
2015,05,04,02,35,5.00
2015,05,04,02,36,5.00
2015,05,04,02,37,5.00
2015,05,04,02,38,5.00
2015,05,04,02,39,4.90
2015,05,04,02,40,4.90
2015,05,04,02,41,4.90
2015,05,04,02,42,4.90
2015,05,04,02,43,4.90
2015,05,04,02,44,4.90
2015,05,04,02,45,4.90
2015,05,04,02,46,4.80
2015,05,04,02,47,4.80
2015,05,04,02,48,4.80
2015,05,04,02,49,4.80
2015,05,04,02,50,4.80
2015,05,04,02,51,4.80
2015,05,04,02,52,4.80
2015,05,04,02,53,4.80
2015,05,04,02,54,4.80
2015,05,04,02,55,4.80
2015,05,04,02,56,4.80
2015,05,04,02,57,4.70
2015,05,04,02,58,4.70
2015,05,04,02,59,4.70
2015,05,04,03,00,4.70
2015,05,04,03,01,4.70
2015,05,04,03,02,4.70
2015,05,04,03,03,4.70
2015,05,04,03,04,4.70
2015,05,04,03,05,4.70
2015,05,04,03,06,4.70
2015,05,04,03,07,4.70
2015,05,04,03,08,4.70
2015,05,04,03,09,4.70
2015,05,04,03,10,4.70
2015,05,04,03,11,4.70
2015,05,04,03,12,4.70
2015,05,04,03,13,4.60
2015,05,04,03,14,4.60
2015,05,04,03,15,4.60
2015,05,04,03,16,4.60
2015,05,04,03,17,4.60
2015,05,04,03,18,4.60
2015,05,04,03,19,4.60
2015,05,04,03,20,4.60
2015,05,04,03,21,4.60
2015,05,04,03,22,4.60
2015,05,04,03,23,4.60
2015,05,04,03,24,4.60
2015,05,04,03,25,4.60
2015,05,04,03,26,4.60
2015,05,04,03,27,4.60
2015,05,04,03,28,4.60
2015,05,04,03,29,4.60
2015,05,04,03,30,4.60
2015,05,04,03,31,4.60
2015,05,04,03,32,4.60
2015,05,04,03,33,4.60
2015,05,04,03,34,4.60
2015,05,04,03,35,4.60
2015,05,04,03,36,4.50
2015,05,04,03,37,4.50
2015,05,04,03,38,4.50
2015,05,04,03,39,4.50
2015,05,04,03,40,4.50
2015,05,04,03,41,4.50
2015,05,04,03,42,4.50
2015,05,04,03,43,4.50
2015,05,04,03,44,4.50
2015,05,04,03,45,4.50
2015,05,04,03,46,4.50
2015,05,04,03,47,4.50
2015,05,04,03,48,4.50
2015,05,04,03,49,4.40
2015,05,04,03,50,4.40
2015,05,04,03,51,4.40
2015,05,04,03,52,4.40
2015,05,04,03,53,4.30
2015,05,04,03,54,4.30
2015,05,04,03,55,4.30
2015,05,04,03,56,4.30
2015,05,04,03,57,4.30
2015,05,04,03,58,4.20
2015,05,04,03,59,4.20
2015,05,04,04,00,4.20
2015,05,04,04,01,4.20
2015,05,04,04,02,4.20
2015,05,04,04,03,4.20
2015,05,04,04,04,4.20
2015,05,04,04,05,4.20
2015,05,04,04,06,4.20
2015,05,04,04,07,4.20
2015,05,04,04,08,4.20
2015,05,04,04,09,4.20
2015,05,04,04,10,4.20
2015,05,04,04,11,4.10
2015,05,04,04,12,4.10
2015,05,04,04,13,4.10
2015,05,04,04,14,4.10
2015,05,04,04,15,4.10
2015,05,04,04,16,4.10
2015,05,04,04,17,4.10
2015,05,04,04,18,4.10
2015,05,04,04,19,4.10
2015,05,04,04,20,4.10
2015,05,04,04,21,4.10
2015,05,04,04,22,4.10
2015,05,04,04,23,4.10
2015,05,04,04,24,4.10
2015,05,04,04,25,4.10
2015,05,04,04,26,4.10
2015,05,04,04,27,4.10
2015,05,04,04,28,4.00
2015,05,04,04,29,4.00
2015,05,04,04,30,4.00
2015,05,04,04,31,4.00
2015,05,04,04,32,3.90
2015,05,04,04,33,3.90
2015,05,04,04,34,3.90
2015,05,04,04,35,3.90
2015,05,04,04,36,3.90
2015,05,04,04,37,3.90
2015,05,04,04,38,3.80
2015,05,04,04,39,3.80
2015,05,04,04,40,3.80
2015,05,04,04,41,3.80
2015,05,04,04,42,3.80
2015,05,04,04,43,3.80
2015,05,04,04,44,3.80
2015,05,04,04,45,3.80
2015,05,04,04,46,3.80
2015,05,04,04,47,3.80
2015,05,04,04,48,3.80
2015,05,04,04,49,3.80
2015,05,04,04,50,3.80
2015,05,04,04,51,3.80
2015,05,04,04,52,3.80
2015,05,04,04,53,3.80
2015,05,04,04,54,3.80
2015,05,04,04,55,3.80
2015,05,04,04,56,3.80
2015,05,04,04,57,3.80
2015,05,04,04,58,3.80
2015,05,04,04,59,3.80
2015,05,04,05,00,3.70
2015,05,04,05,01,3.70
2015,05,04,05,02,3.70
2015,05,04,05,03,3.70
2015,05,04,05,04,3.70
2015,05,04,05,05,3.70
2015,05,04,05,06,3.70
2015,05,04,05,07,3.70
2015,05,04,05,08,3.70
2015,05,04,05,09,3.70
2015,05,04,05,10,3.70
2015,05,04,05,11,3.70
2015,05,04,05,12,3.70
2015,05,04,05,13,3.70
2015,05,04,05,14,3.70
2015,05,04,05,15,3.70
2015,05,04,05,16,3.70
2015,05,04,05,17,3.70
2015,05,04,05,18,3.60
2015,05,04,05,19,3.60
2015,05,04,05,20,3.60
2015,05,04,05,21,3.60
2015,05,04,05,22,3.60
2015,05,04,05,23,3.60
2015,05,04,05,24,3.60
2015,05,04,05,25,3.60
2015,05,04,05,26,3.60
2015,05,04,05,27,3.60
2015,05,04,05,28,3.60
2015,05,04,05,29,3.60
2015,05,04,05,30,3.60
2015,05,04,05,31,3.60
2015,05,04,05,32,3.60
2015,05,04,05,33,3.60
2015,05,04,05,34,3.60
2015,05,04,05,35,3.60
2015,05,04,05,36,3.60
2015,05,04,05,37,3.60
2015,05,04,05,38,3.60
2015,05,04,05,39,3.60
2015,05,04,05,40,3.60
2015,05,04,05,41,3.70
2015,05,04,05,42,3.70
2015,05,04,05,43,3.70
2015,05,04,05,44,3.70
2015,05,04,05,45,3.70
2015,05,04,05,46,3.60
2015,05,04,05,47,3.60
2015,05,04,05,48,3.60
2015,05,04,05,49,3.60
2015,05,04,05,50,3.60
2015,05,04,05,51,3.60
2015,05,04,05,52,3.60
2015,05,04,05,53,3.50
2015,05,04,05,54,3.50
2015,05,04,05,55,3.50
2015,05,04,05,56,3.50
2015,05,04,05,57,3.50
2015,05,04,05,58,3.40
2015,05,04,05,59,3.40
2015,05,04,06,00,3.40
2015,05,04,06,01,3.40
2015,05,04,06,02,3.40
2015,05,04,06,03,3.40
2015,05,04,06,04,3.40
2015,05,04,06,05,3.40
2015,05,04,06,06,3.40
2015,05,04,06,07,3.40
2015,05,04,06,08,3.40
2015,05,04,06,09,3.40
2015,05,04,06,10,3.50
2015,05,04,06,11,3.50
2015,05,04,06,12,3.50
2015,05,04,06,13,3.50
2015,05,04,06,14,3.40
2015,05,04,06,15,3.40
2015,05,04,06,16,3.40
2015,05,04,06,17,3.50
2015,05,04,06,18,3.50
2015,05,04,06,19,3.50
2015,05,04,06,20,3.50
2015,05,04,06,21,3.50
2015,05,04,06,22,3.60
2015,05,04,06,23,3.60
2015,05,04,06,24,3.60
2015,05,04,06,25,3.60
2015,05,04,06,26,3.60
2015,05,04,06,27,3.60
2015,05,04,06,28,3.60
2015,05,04,06,29,3.60
2015,05,04,06,30,3.60
2015,05,04,06,31,3.60
2015,05,04,06,32,3.60
2015,05,04,06,33,3.70
2015,05,04,06,34,3.70
2015,05,04,06,35,3.70
2015,05,04,06,36,3.70
2015,05,04,06,37,3.70
2015,05,04,06,38,3.70
2015,05,04,06,39,3.80
2015,05,04,06,40,3.80
2015,05,04,06,41,3.80
2015,05,04,06,42,3.80
2015,05,04,06,43,3.80
2015,05,04,06,44,3.90
2015,05,04,06,45,3.90
2015,05,04,06,46,3.90
2015,05,04,06,47,3.90
2015,05,04,06,48,3.90
2015,05,04,06,49,3.90
2015,05,04,06,50,3.90
2015,05,04,06,51,4.00
2015,05,04,06,52,4.10
2015,05,04,06,53,4.10
2015,05,04,06,54,4.10
2015,05,04,06,55,4.20
2015,05,04,06,56,4.20
2015,05,04,06,57,4.20
2015,05,04,06,58,4.20
2015,05,04,06,59,4.20
2015,05,04,07,00,4.30
2015,05,04,07,01,4.30
2015,05,04,07,02,4.40
2015,05,04,07,03,4.40
2015,05,04,07,04,4.50
2015,05,04,07,05,4.60
2015,05,04,07,06,4.60
2015,05,04,07,07,4.70
2015,05,04,07,08,4.80
2015,05,04,07,09,4.80
2015,05,04,07,10,4.90
2015,05,04,07,11,5.00
2015,05,04,07,12,5.10
2015,05,04,07,13,5.20
2015,05,04,07,14,5.30
2015,05,04,07,15,5.40
2015,05,04,07,16,5.60
2015,05,04,07,17,5.70
2015,05,04,07,18,5.80
2015,05,04,07,19,5.90
2015,05,04,07,20,6.00
2015,05,04,07,21,6.10
2015,05,04,07,22,6.20
2015,05,04,07,23,6.30
2015,05,04,07,24,6.40
2015,05,04,07,25,6.50
2015,05,04,07,26,6.60
2015,05,04,07,27,6.70
2015,05,04,07,28,6.80
2015,05,04,07,29,6.90
2015,05,04,07,30,7.10
2015,05,04,07,31,7.20
2015,05,04,07,32,7.30
2015,05,04,07,33,7.40
2015,05,04,07,34,7.40
2015,05,04,07,35,7.50
2015,05,04,07,36,7.60
2015,05,04,07,37,7.60
2015,05,04,07,38,7.70
2015,05,04,07,39,7.80
2015,05,04,07,40,7.80
2015,05,04,07,41,7.90
2015,05,04,07,42,7.90
2015,05,04,07,43,8.00
2015,05,04,07,44,8.00
2015,05,04,07,45,8.10
2015,05,04,07,46,8.20
2015,05,04,07,47,8.30
2015,05,04,07,48,8.30
2015,05,04,07,49,8.40
2015,05,04,07,50,8.50
2015,05,04,07,51,8.60
2015,05,04,07,52,8.70
2015,05,04,07,53,8.80
2015,05,04,07,54,8.80
2015,05,04,07,55,8.90
2015,05,04,07,56,9.00
2015,05,04,07,57,9.10
2015,05,04,07,58,9.10
2015,05,04,07,59,9.20
2015,05,04,08,00,9.30
2015,05,04,08,01,9.30
2015,05,04,08,02,9.40
2015,05,04,08,03,9.50
2015,05,04,08,04,9.60
2015,05,04,08,05,9.60
2015,05,04,08,06,9.70
2015,05,04,08,07,9.80
2015,05,04,08,08,9.80
2015,05,04,08,09,9.80
2015,05,04,08,10,9.80
2015,05,04,08,11,9.90
2015,05,04,08,12,9.90
2015,05,04,08,13,10.00
2015,05,04,08,14,10.00
2015,05,04,08,15,10.10
2015,05,04,08,16,10.10
2015,05,04,08,17,10.10
2015,05,04,08,18,10.10
2015,05,04,08,19,10.10
2015,05,04,08,20,10.10
2015,05,04,08,21,10.10
2015,05,04,08,22,10.10
2015,05,04,08,23,10.20
2015,05,04,08,24,10.20
2015,05,04,08,25,10.20
2015,05,04,08,26,10.20
2015,05,04,08,27,10.20
2015,05,04,08,28,10.20
2015,05,04,08,29,10.30
2015,05,04,08,30,10.30
2015,05,04,08,31,10.30
2015,05,04,08,32,10.30
2015,05,04,08,33,10.40
2015,05,04,08,34,10.40
2015,05,04,08,35,10.40
2015,05,04,08,36,10.40
2015,05,04,08,37,10.40
2015,05,04,08,38,10.40
2015,05,04,08,39,10.50
2015,05,04,08,40,10.50
2015,05,04,08,41,10.50
2015,05,04,08,42,10.50
2015,05,04,08,43,10.60
2015,05,04,08,44,10.60
2015,05,04,08,45,10.60
2015,05,04,08,46,10.60
2015,05,04,08,47,10.60
2015,05,04,08,48,10.60
2015,05,04,08,49,10.70
2015,05,04,08,50,10.70
2015,05,04,08,51,10.80
2015,05,04,08,52,10.80
2015,05,04,08,53,10.80
2015,05,04,08,54,10.80
2015,05,04,08,55,10.80
2015,05,04,08,56,10.80
2015,05,04,08,57,10.80
2015,05,04,08,58,10.80
2015,05,04,08,59,10.80
2015,05,04,09,00,10.80
2015,05,04,09,01,10.80
2015,05,04,09,02,10.80
2015,05,04,09,03,10.80
2015,05,04,09,04,10.80
2015,05,04,09,05,10.80
2015,05,04,09,06,10.90
2015,05,04,09,07,10.90
2015,05,04,09,08,10.90
2015,05,04,09,09,10.90
2015,05,04,09,10,10.90
2015,05,04,09,11,10.90
2015,05,04,09,12,10.90
2015,05,04,09,13,11.00
2015,05,04,09,14,11.00
2015,05,04,09,15,11.00
2015,05,04,09,16,10.90
2015,05,04,09,17,10.90
2015,05,04,09,18,10.90
2015,05,04,09,19,10.90
2015,05,04,09,20,10.90
2015,05,04,09,21,10.90
2015,05,04,09,22,10.80
2015,05,04,09,23,10.80
2015,05,04,09,24,10.80
2015,05,04,09,25,10.90
2015,05,04,09,26,10.90
2015,05,04,09,27,10.90
2015,05,04,09,28,10.90
2015,05,04,09,29,10.90
2015,05,04,09,30,11.00
2015,05,04,09,31,11.10
2015,05,04,09,32,11.10
2015,05,04,09,33,11.10
2015,05,04,09,34,11.10
2015,05,04,09,35,11.10
2015,05,04,09,36,11.10
2015,05,04,09,37,11.10
2015,05,04,09,38,11.10
2015,05,04,09,39,11.10
2015,05,04,09,40,11.10
2015,05,04,09,41,11.10
2015,05,04,09,42,11.10
2015,05,04,09,43,11.00
2015,05,04,09,44,10.90
2015,05,04,09,45,10.90
2015,05,04,09,46,10.90
2015,05,04,09,47,10.90
2015,05,04,09,48,10.90
2015,05,04,09,49,10.90
2015,05,04,09,50,11.00
2015,05,04,09,51,11.10
2015,05,04,09,52,11.10
2015,05,04,09,53,11.20
2015,05,04,09,54,11.20
2015,05,04,09,55,11.30
2015,05,04,09,56,11.40
2015,05,04,09,57,11.50
2015,05,04,09,58,11.60
2015,05,04,09,59,11.60
2015,05,04,10,00,11.60
2015,05,04,10,01,11.60
2015,05,04,10,02,11.70
2015,05,04,10,03,11.70
2015,05,04,10,04,11.60
2015,05,04,10,05,11.60
2015,05,04,10,06,11.60
2015,05,04,10,07,11.60
2015,05,04,10,08,11.60
2015,05,04,10,09,11.60
2015,05,04,10,10,11.60
2015,05,04,10,11,11.60
2015,05,04,10,12,11.60
2015,05,04,10,13,11.60
2015,05,04,10,14,11.60
2015,05,04,10,15,11.60
2015,05,04,10,16,11.60
2015,05,04,10,17,11.50
2015,05,04,10,18,11.60
2015,05,04,10,19,11.60
2015,05,04,10,20,11.60
2015,05,04,10,21,11.70
2015,05,04,10,22,11.70
2015,05,04,10,23,11.70
2015,05,04,10,24,11.70
2015,05,04,10,25,11.60
2015,05,04,10,26,11.60
2015,05,04,10,27,11.60
2015,05,04,10,28,11.60
2015,05,04,10,29,11.60
2015,05,04,10,30,11.70
2015,05,04,10,31,11.70
2015,05,04,10,32,11.70
2015,05,04,10,33,11.70
2015,05,04,10,34,11.80
2015,05,04,10,35,11.80
2015,05,04,10,36,11.80
2015,05,04,10,37,11.90
2015,05,04,10,38,11.80
2015,05,04,10,39,11.80
2015,05,04,10,40,11.80
2015,05,04,10,41,11.80
2015,05,04,10,42,11.80
2015,05,04,10,43,11.80
2015,05,04,10,44,11.90
2015,05,04,10,45,11.80
2015,05,04,10,46,11.80
2015,05,04,10,47,11.70
2015,05,04,10,48,11.60
2015,05,04,10,49,11.50
2015,05,04,10,50,11.50
2015,05,04,10,51,11.40
2015,05,04,10,52,11.40
2015,05,04,10,53,11.40
2015,05,04,10,54,11.40
2015,05,04,10,55,11.50
2015,05,04,10,56,11.50
2015,05,04,10,57,11.60
2015,05,04,10,58,11.60
2015,05,04,10,59,11.60
2015,05,04,11,00,11.60
2015,05,04,11,01,11.60
2015,05,04,11,02,11.60
2015,05,04,11,03,11.60
2015,05,04,11,04,11.70
2015,05,04,11,05,11.70
2015,05,04,11,06,11.70
2015,05,04,11,07,11.70
2015,05,04,11,08,11.70
2015,05,04,11,09,11.80
2015,05,04,11,10,11.70
2015,05,04,11,11,11.70
2015,05,04,11,12,11.70
2015,05,04,11,13,11.70
2015,05,04,11,14,11.70
2015,05,04,11,15,11.80
2015,05,04,11,16,11.80
2015,05,04,11,17,11.80
2015,05,04,11,18,11.90
2015,05,04,11,19,11.90
2015,05,04,11,20,12.00
2015,05,04,11,21,12.20
2015,05,04,11,22,12.20
2015,05,04,11,23,12.20
2015,05,04,11,24,12.20
2015,05,04,11,25,12.20
2015,05,04,11,26,12.20
2015,05,04,11,27,12.10
2015,05,04,11,28,12.10
2015,05,04,11,29,12.20
2015,05,04,11,30,12.10
2015,05,04,11,31,12.10
2015,05,04,11,32,12.10
2015,05,04,11,33,12.10
2015,05,04,11,34,12.10
2015,05,04,11,35,12.10
2015,05,04,11,36,12.20
2015,05,04,11,37,12.20
2015,05,04,11,38,12.20
2015,05,04,11,39,12.20
2015,05,04,11,40,12.20
2015,05,04,11,41,12.20
2015,05,04,11,42,12.20
2015,05,04,11,43,12.30
2015,05,04,11,44,12.30
2015,05,04,11,45,12.30
2015,05,04,11,46,12.30
2015,05,04,11,47,12.20
2015,05,04,11,48,12.20
2015,05,04,11,49,12.30
2015,05,04,11,50,12.30
2015,05,04,11,51,12.40
2015,05,04,11,52,12.40
2015,05,04,11,53,12.40
2015,05,04,11,54,12.40
2015,05,04,11,55,12.40
2015,05,04,11,56,12.50
2015,05,04,11,57,12.50
2015,05,04,11,58,12.50
2015,05,04,11,59,12.50
2015,05,04,12,00,12.50
2015,05,04,12,01,12.60
2015,05,04,12,02,12.60
2015,05,04,12,03,12.60
2015,05,04,12,04,12.70
2015,05,04,12,05,12.70
2015,05,04,12,06,12.60
2015,05,04,12,07,12.70
2015,05,04,12,08,12.80
2015,05,04,12,09,12.80
2015,05,04,12,10,12.80
2015,05,04,12,11,12.80
2015,05,04,12,12,12.80
2015,05,04,12,13,12.70
2015,05,04,12,14,12.60
2015,05,04,12,15,12.60
2015,05,04,12,16,12.60
2015,05,04,12,17,12.60
2015,05,04,12,18,12.60
2015,05,04,12,19,12.70
2015,05,04,12,20,12.70
2015,05,04,12,21,12.80
2015,05,04,12,22,12.80
2015,05,04,12,23,12.70
2015,05,04,12,24,12.70
2015,05,04,12,25,12.80
2015,05,04,12,26,12.80
2015,05,04,12,27,12.80
2015,05,04,12,28,12.90
2015,05,04,12,29,12.90
2015,05,04,12,30,13.00
2015,05,04,12,31,13.10
2015,05,04,12,32,13.10
2015,05,04,12,33,13.20
2015,05,04,12,34,13.20
2015,05,04,12,35,13.30
2015,05,04,12,36,13.40
2015,05,04,12,37,13.50
2015,05,04,12,38,13.60
2015,05,04,12,39,13.60
2015,05,04,12,40,13.60
2015,05,04,12,41,13.60
2015,05,04,12,42,13.60
2015,05,04,12,43,13.60
2015,05,04,12,44,13.60
2015,05,04,12,45,13.60
2015,05,04,12,46,13.60
2015,05,04,12,47,13.60
2015,05,04,12,48,13.70
2015,05,04,12,49,13.80
2015,05,04,12,50,13.90
2015,05,04,12,51,14.00
2015,05,04,12,52,14.00
2015,05,04,12,53,13.90
2015,05,04,12,54,13.80
2015,05,04,12,55,13.80
2015,05,04,12,56,13.80
2015,05,04,12,57,13.90
2015,05,04,12,58,14.00
2015,05,04,12,59,14.10
2015,05,04,13,00,14.10
2015,05,04,13,01,14.10
2015,05,04,13,02,14.10
2015,05,04,13,03,14.10
2015,05,04,13,04,14.10
2015,05,04,13,05,14.20
2015,05,04,13,06,14.20
2015,05,04,13,07,14.30
2015,05,04,13,08,14.30
2015,05,04,13,09,14.30
2015,05,04,13,10,14.30
2015,05,04,13,11,14.20
2015,05,04,13,12,14.20
2015,05,04,13,13,14.30
2015,05,04,13,14,14.30
2015,05,04,13,15,14.40
2015,05,04,13,16,14.40
2015,05,04,13,17,14.40
2015,05,04,13,18,14.30
2015,05,04,13,19,14.20
2015,05,04,13,20,14.30
2015,05,04,13,21,14.30
2015,05,04,13,22,14.30
2015,05,04,13,23,14.30
2015,05,04,13,24,14.20
2015,05,04,13,25,14.30
2015,05,04,13,26,14.30
2015,05,04,13,27,14.30
2015,05,04,13,28,14.30
2015,05,04,13,29,14.20
2015,05,04,13,30,14.20
2015,05,04,13,31,14.20
2015,05,04,13,32,14.30
2015,05,04,13,33,14.30
2015,05,04,13,34,14.40
2015,05,04,13,35,14.40
2015,05,04,13,36,14.40
2015,05,04,13,37,14.40
2015,05,04,13,38,14.50
2015,05,04,13,39,14.50
2015,05,04,13,40,14.60
2015,05,04,13,41,14.60
2015,05,04,13,42,14.70
2015,05,04,13,43,14.70
2015,05,04,13,44,14.70
2015,05,04,13,45,14.50
2015,05,04,13,46,14.40
2015,05,04,13,47,14.30
2015,05,04,13,48,14.30
2015,05,04,13,49,14.30
2015,05,04,13,50,14.30
2015,05,04,13,51,14.30
2015,05,04,13,52,14.30
2015,05,04,13,53,14.30
2015,05,04,13,54,14.30
2015,05,04,13,55,14.30
2015,05,04,13,56,14.30
2015,05,04,13,57,14.30
2015,05,04,13,58,14.30
2015,05,04,13,59,14.30
2015,05,04,14,00,14.30
2015,05,04,14,01,14.40
2015,05,04,14,02,14.50
2015,05,04,14,03,14.70
2015,05,04,14,04,14.70
2015,05,04,14,05,14.70
2015,05,04,14,06,14.70
2015,05,04,14,07,14.70
2015,05,04,14,08,14.70
2015,05,04,14,09,14.70
2015,05,04,14,10,14.70
2015,05,04,14,11,14.70
2015,05,04,14,12,14.70
2015,05,04,14,13,14.70
2015,05,04,14,14,14.70
2015,05,04,14,15,14.70
2015,05,04,14,16,14.60
2015,05,04,14,17,14.50
2015,05,04,14,18,14.40
2015,05,04,14,19,14.20
2015,05,04,14,20,14.20
2015,05,04,14,21,14.20
2015,05,04,14,22,14.20
2015,05,04,14,23,14.30
2015,05,04,14,24,14.30
2015,05,04,14,25,14.40
2015,05,04,14,26,14.50
2015,05,04,14,27,14.60
2015,05,04,14,28,14.70
2015,05,04,14,29,14.60
2015,05,04,14,30,14.60
2015,05,04,14,31,14.60
2015,05,04,14,32,14.70
2015,05,04,14,33,14.60
2015,05,04,14,34,14.50
2015,05,04,14,35,14.40
2015,05,04,14,36,14.40
2015,05,04,14,37,14.30
2015,05,04,14,38,14.20
2015,05,04,14,39,14.10
2015,05,04,14,40,14.00
2015,05,04,14,41,13.90
2015,05,04,14,42,13.80
2015,05,04,14,43,13.80
2015,05,04,14,44,13.80
2015,05,04,14,45,13.70
2015,05,04,14,46,13.60
2015,05,04,14,47,13.60
2015,05,04,14,48,13.50
2015,05,04,14,49,13.50
2015,05,04,14,50,13.50
2015,05,04,14,51,13.50
2015,05,04,14,52,13.50
2015,05,04,14,53,13.40
2015,05,04,14,54,13.40
2015,05,04,14,55,13.40
2015,05,04,14,56,13.40
2015,05,04,14,57,13.40
2015,05,04,14,58,13.40
2015,05,04,14,59,13.40
2015,05,04,15,00,13.40
2015,05,04,15,01,13.40
2015,05,04,15,02,13.40
2015,05,04,15,03,13.30
2015,05,04,15,04,13.30
2015,05,04,15,05,13.30
2015,05,04,15,06,13.30
2015,05,04,15,07,13.20
2015,05,04,15,08,13.20
2015,05,04,15,09,13.20
2015,05,04,15,10,13.10
2015,05,04,15,11,13.10
2015,05,04,15,12,13.10
2015,05,04,15,13,13.10
2015,05,04,15,14,13.20
2015,05,04,15,15,13.20
2015,05,04,15,16,13.30
2015,05,04,15,17,13.20
2015,05,04,15,18,13.20
2015,05,04,15,19,13.20
2015,05,04,15,20,13.20
2015,05,04,15,21,13.20
2015,05,04,15,22,13.20
2015,05,04,15,23,13.20
2015,05,04,15,24,13.20
2015,05,04,15,25,13.20
2015,05,04,15,26,13.20
2015,05,04,15,27,13.10
2015,05,04,15,28,13.10
2015,05,04,15,29,13.00
2015,05,04,15,30,12.90
2015,05,04,15,31,12.90
2015,05,04,15,32,12.80
2015,05,04,15,33,12.80
2015,05,04,15,34,12.80
2015,05,04,15,35,12.70
2015,05,04,15,36,12.70
2015,05,04,15,37,12.70
2015,05,04,15,38,12.60
2015,05,04,15,39,12.60
2015,05,04,15,40,12.50
2015,05,04,15,41,12.50
2015,05,04,15,42,12.50
2015,05,04,15,43,12.50
2015,05,04,15,44,12.50
2015,05,04,15,45,12.50
2015,05,04,15,46,12.50
2015,05,04,15,47,12.60
2015,05,04,15,48,12.60
2015,05,04,15,49,12.60
2015,05,04,15,50,12.60
2015,05,04,15,51,12.60
2015,05,04,15,52,12.60
2015,05,04,15,53,12.60
2015,05,04,15,54,12.50
2015,05,04,15,55,12.50
2015,05,04,15,56,12.50
2015,05,04,15,57,12.50
2015,05,04,15,58,12.60
2015,05,04,15,59,12.70
2015,05,04,16,00,12.90
2015,05,04,16,01,12.90
2015,05,04,16,02,12.90
2015,05,04,16,03,12.90
2015,05,04,16,04,13.00
2015,05,04,16,05,12.90
2015,05,04,16,06,12.90
2015,05,04,16,07,12.80
2015,05,04,16,08,12.80
2015,05,04,16,09,12.80
2015,05,04,16,10,12.80
2015,05,04,16,11,12.70
2015,05,04,16,12,12.60
2015,05,04,16,13,12.60
2015,05,04,16,14,12.60
2015,05,04,16,15,12.60
2015,05,04,16,16,12.60
2015,05,04,16,17,12.50
2015,05,04,16,18,12.40
2015,05,04,16,19,12.40
2015,05,04,16,20,12.30
2015,05,04,16,21,12.30
2015,05,04,16,22,12.30
2015,05,04,16,23,12.30
2015,05,04,16,24,12.30
2015,05,04,16,25,12.30
2015,05,04,16,26,12.30
2015,05,04,16,27,12.30
2015,05,04,16,28,12.20
2015,05,04,16,29,12.20
2015,05,04,16,30,12.10
2015,05,04,16,31,12.10
2015,05,04,16,32,12.00
2015,05,04,16,33,12.00
2015,05,04,16,34,11.90
2015,05,04,16,35,11.90
2015,05,04,16,36,11.80
2015,05,04,16,37,11.80
2015,05,04,16,38,11.70
2015,05,04,16,39,11.70
2015,05,04,16,40,11.70
2015,05,04,16,41,11.70
2015,05,04,16,42,11.70
2015,05,04,16,43,11.70
2015,05,04,16,44,11.60
2015,05,04,16,45,11.60
2015,05,04,16,46,11.50
2015,05,04,16,47,11.50
2015,05,04,16,48,11.40
2015,05,04,16,49,11.30
2015,05,04,16,50,11.30
2015,05,04,16,51,11.20
2015,05,04,16,52,11.20
2015,05,04,16,53,11.20
2015,05,04,16,54,11.20
2015,05,04,16,55,11.20
2015,05,04,16,56,11.20
2015,05,04,16,57,11.20
2015,05,04,16,58,11.20
2015,05,04,16,59,11.20
2015,05,04,17,00,11.20
2015,05,04,17,01,11.30
2015,05,04,17,02,11.30
2015,05,04,17,03,11.30
2015,05,04,17,04,11.30
2015,05,04,17,05,11.30
2015,05,04,17,06,11.30
2015,05,04,17,07,11.40
2015,05,04,17,08,11.40
2015,05,04,17,09,11.50
2015,05,04,17,10,11.60
2015,05,04,17,11,11.70
2015,05,04,17,12,11.80
2015,05,04,17,13,11.90
2015,05,04,17,14,12.00
2015,05,04,17,15,12.10
2015,05,04,17,16,12.20
2015,05,04,17,17,12.20
2015,05,04,17,18,12.30
2015,05,04,17,19,12.30
2015,05,04,17,20,12.40
2015,05,04,17,21,12.50
2015,05,04,17,22,12.60
2015,05,04,17,23,12.70
2015,05,04,17,24,12.70
2015,05,04,17,25,12.80
2015,05,04,17,26,12.80
2015,05,04,17,27,12.90
2015,05,04,17,28,13.00
2015,05,04,17,29,13.00
2015,05,04,17,30,13.00
2015,05,04,17,31,13.10
2015,05,04,17,32,13.10
2015,05,04,17,33,13.10
2015,05,04,17,34,13.10
2015,05,04,17,35,13.10
2015,05,04,17,36,13.10
2015,05,04,17,37,13.10
2015,05,04,17,38,13.00
2015,05,04,17,39,13.00
2015,05,04,17,40,13.10